"Pseudo-MPEC" for P113j4S

Created 2020 Aug 6 6:07:10 UT using Find_Orb

Click here for an explanation of pseudo-MPECs

 
 Astrometry: 
     P113j4S  C2020 07 29hYswq^G%A_p#U/A/!HC;Jt!g9te0AqxEur)CQ%\G\l1WUfYy[QIUF51
     P113j4S  C2020 07 29SjAstrometryHMUXI'0I_u/\Lh?N%1redacted;96f%p?`GhoTXqF51
     P113j4S  C2020 07 29\h)+ImTOR*85V[T^`click?wv+VF%pHm?6^Hsiqfx?(8.8sbw3[NF51
     P113j4S  C2020 07 300f_0EUX9u[se?A9clY;lxw^`52HfE)oUJT@ocxhereb^Y5$SV=pPF51
     P113j4S  C2020 07 301HforOb-iw?8ugNyAnI*leCL!!Y1Ohn:6wwASp3q5.^cbY1e#PaOF51
     P113j4S  C2020 07 30+b.=Z7_(QuZSM!-ChX2vqO8P`#Hd.cmmKV0_explanationGIByEF51

Station data:
(F51) Pan-STARRS 1, Haleakala  (N20.707235 W156.255910)  US/Hawaii.
   Observers N. Primak, A. Schultz, S. Watters, J. Thiel, T. Goggia. Measurer
   PS1 Science Consortium. 1.8-m Ritchey-Chrétien + CCD.

Orbital elements:  P113j4S
   Perihelion 2020 Apr 24.006409 +/- 101 TT =  0:09:13 (JD 2458963.506409)
Epoch 2020 Jul 30.0 TT = JDT 2459060.5   Earth MOID: 0.6305   AutoNEOCP
M  24.25787634 +/- 43               (J2000 ecliptic)
n   0.25009772 +/- 0.221            Peri.  282.10296 +/- 90
a   2.49495599 +/- 1.45             Node   337.31372 +/- 3.9
e   0.4306790 +/- 0.264             Incl.   28.34790 +/- 14
P   3.94                   H 20.7   G  0.15   U 11.7  SR
q 1.42043081 +/- 0.451    Q 3.56948118 +/- 33.8
From 6 observations 2020 July 29-30 (24.0 hr); mean residual 0".12
Residuals in arcseconds: 
200729 F51  .04+  .15+    200729 F51  .06+  .15-    200730 F51  .19-  .13-    
200729 F51  .10-  .00     200730 F51  .04+  .06-    200730 F51  .15+  .20+    

Ephemerides (geocentric):
Date (UTC) HH   RA              Dec         delta   r     elong  mag " sig PA
---- -- -- --  -------------   -----------  ------ ------ -----  --- ---- ---
2020 08 06 06  23 11 07.018   -21 50 33.53  .75182 1.7072 150.0 22.1  945  30
2020 08 06 07  23 11 01.644   -21 49 49.23  .75180 1.7074 150.1 22.1  957  30
2020 08 06 08  23 10 56.267   -21 49 04.92  .75178 1.7076 150.1 22.1  969  30
2020 08 06 09  23 10 50.886   -21 48 20.59  .75177 1.7078 150.2 22.1  981  30
2020 08 06 10  23 10 45.502   -21 47 36.24  .75175 1.7080 150.2 22.1  994  30
2020 08 06 11  23 10 40.115   -21 46 51.88  .75174 1.7082 150.3 22.1 1006  30
2020 08 06 12  23 10 34.725   -21 46 07.50  .75172 1.7084 150.3 22.1 1018  30
2020 08 06 13  23 10 29.332   -21 45 23.10  .75171 1.7086 150.4 22.1 1031  30
2020 08 06 14  23 10 23.935   -21 44 38.68  .75169 1.7088 150.4 22.1 1044  30
2020 08 06 15  23 10 18.536   -21 43 54.25  .75168 1.7090 150.5 22.1 1056  30
2020 08 06 16  23 10 13.133   -21 43 09.81  .75167 1.7092 150.6 22.1 1069  30
2020 08 06 17  23 10 07.727   -21 42 25.34  .75165 1.7094 150.6 22.1 1082  30
2020 08 06 18  23 10 02.319   -21 41 40.86  .75164 1.7096 150.7 22.1 1095  30
2020 08 06 19  23 09 56.907   -21 40 56.36  .75163 1.7097 150.7 22.1 1108  30
2020 08 06 20  23 09 51.492   -21 40 11.85  .75161 1.7099 150.8 22.1 1122  30
2020 08 06 21  23 09 46.074   -21 39 27.32  .75160 1.7101 150.8 22.1 1135  30
2020 08 06 22  23 09 40.653   -21 38 42.77  .75159 1.7103 150.9 22.1 1148  30
2020 08 06 23  23 09 35.229   -21 37 58.20  .75158 1.7105 150.9 22.1 1162  30
2020 08 07 00  23 09 29.803   -21 37 13.62  .75157 1.7107 151.0 22.1 1175  30
2020 08 07 01  23 09 24.373   -21 36 29.02  .75156 1.7109 151.1 22.1 1189  30
2020 08 07 02  23 09 18.940   -21 35 44.41  .75155 1.7111 151.1 22.1 1203  30
2020 08 07 03  23 09 13.504   -21 34 59.78  .75154 1.7113 151.2 22.1 1217  30
2020 08 07 04  23 09 08.065   -21 34 15.13  .75153 1.7115 151.2 22.1 1231  30
2020 08 07 05  23 09 02.624   -21 33 30.46  .75153 1.7117 151.3 22.1 1245  30
2020 08 07 06  23 08 57.179   -21 32 45.78  .75152 1.7119 151.3 22.1 1259  30
2020 08 07 07  23 08 51.731   -21 32 01.09  .75151 1.7121 151.4 22.1 1273  30
2020 08 07 08  23 08 46.281   -21 31 16.37  .75150 1.7123 151.4 22.1 1288  30
2020 08 07 09  23 08 40.828   -21 30 31.64  .75150 1.7125 151.5 22.1 1302  30
2020 08 07 10  23 08 35.372   -21 29 46.89  .75149 1.7127 151.6 22.1 1316  30
2020 08 07 11  23 08 29.913   -21 29 02.13  .75148 1.7129 151.6 22.1 1331  30
2020 08 07 12  23 08 24.451   -21 28 17.35  .75148 1.7131 151.7 22.1 1346  30
2020 08 07 13  23 08 18.986   -21 27 32.55  .75147 1.7133 151.7 22.1 1361  30
2020 08 07 14  23 08 13.518   -21 26 47.74  .75147 1.7135 151.8 22.1 1376  30
2020 08 07 15  23 08 08.048   -21 26 02.91  .75146 1.7136 151.8 22.1 1391  30
2020 08 07 16  23 08 02.575   -21 25 18.07  .75146 1.7138 151.9 22.1 1406  30
2020 08 07 17  23 07 57.099   -21 24 33.21  .75146 1.7140 152.0 22.1 1421  30
2020 08 07 18  23 07 51.620   -21 23 48.33  .75145 1.7142 152.0 22.1 1436  30
2020 08 07 19  23 07 46.139   -21 23 03.43  .75145 1.7144 152.1 22.1 1452  30
2020 08 07 20  23 07 40.655   -21 22 18.52  .75145 1.7146 152.1 22.1 1467  30
2020 08 07 21  23 07 35.168   -21 21 33.60  .75145 1.7148 152.2 22.1 1483  30
2020 08 07 22  23 07 29.678   -21 20 48.65  .75145 1.7150 152.2 22.1 1498  30
2020 08 07 23  23 07 24.186   -21 20 03.69  .75144 1.7152 152.3 22.1 1514  30
2020 08 08 00  23 07 18.691   -21 19 18.72  .75144 1.7154 152.3 22.1 1530  31
2020 08 08 01  23 07 13.193   -21 18 33.73  .75144 1.7156 152.4 22.1 1546  31
2020 08 08 02  23 07 07.692   -21 17 48.72  .75144 1.7158 152.5 22.1 1562  31
2020 08 08 03  23 07 02.189   -21 17 03.70  .75144 1.7160 152.5 22.1 1578  31
2020 08 08 04  23 06 56.684   -21 16 18.66  .75145 1.7162 152.6 22.1 1595  31
2020 08 08 05  23 06 51.175   -21 15 33.60  .75145 1.7164 152.6 22.1 1611  31